AXY303 YSSY-NZAA

Flight info

Callsign AXY303
Flight time 2h 30m
Altitude 39000
Route EVONN L521 LUNBI
Aircraft A343/H-SDE2E3FGHIJ4J5M1RWXY/LB1D1

Departure

Time 2026-05-05 16:29
Airport Sydney Kingsford Smith International Airport (YSSY)

Arrival

Time 2026-05-05 19:00
Airport Auckland International Airport (NZAA)
Time Latitude Longitude Altitude Speed Heading
2026-05-05 15:58 -33.93403 151.16777 28 ft 0 kts 251°
2026-05-05 16:15 -33.93394 151.16806 31 ft 4 kts 244°
2026-05-05 16:16 -33.93365 151.16860 31 ft 4 kts 226°
2026-05-05 16:16 -33.93322 151.16897 30 ft 3 kts 200°
2026-05-05 16:17 -33.93319 151.16898 30 ft 0 kts 199°
2026-05-05 16:21 -33.93335 151.16893 30 ft 5 kts 193°
2026-05-05 16:22 -33.93505 151.16968 29 ft 13 kts 113°
2026-05-05 16:22 -33.93669 151.17146 27 ft 22 kts 167°
2026-05-05 16:23 -33.93822 151.17186 20 ft 26 kts 167°
2026-05-05 16:23 -33.93886 151.17203 21 ft 27 kts 168°
2026-05-05 16:23 -33.94098 151.17258 29 ft 26 kts 168°
2026-05-05 16:24 -33.94101 151.17259 29 ft 26 kts 168°
2026-05-05 16:24 -33.94282 151.17305 28 ft 27 kts 168°
2026-05-05 16:24 -33.94641 151.17401 30 ft 24 kts 166°
2026-05-05 16:25 -33.94813 151.17445 31 ft 27 kts 168°
2026-05-05 16:25 -33.95208 151.17547 24 ft 31 kts 167°
2026-05-05 16:25 -33.95420 151.17599 27 ft 31 kts 168°
2026-05-05 16:26 -33.95824 151.17707 27 ft 25 kts 167°
2026-05-05 16:26 -33.96111 151.17783 29 ft 17 kts 168°
2026-05-05 16:27 -33.96230 151.17812 27 ft 15 kts 168°
2026-05-05 16:27 -33.96301 151.17829 27 ft 11 kts 168°
2026-05-05 16:27 -33.96383 151.17849 28 ft 13 kts 167°
2026-05-05 16:27 -33.96437 151.17927 28 ft 13 kts 100°
2026-05-05 16:28 -33.96418 151.18033 28 ft 12 kts 57°
2026-05-05 16:28 -33.96345 151.18045 28 ft 12 kts 341°
2026-05-05 16:28 -33.96318 151.18036 28 ft 0 kts 346°
2026-05-05 16:29 -33.96263 151.18021 27 ft 36 kts 347°
2026-05-05 16:29 -33.95687 151.17871 29 ft 129 kts 347°
2026-05-05 16:29 -33.94568 151.17577 162 ft 192 kts 347°
2026-05-05 16:29 -33.93137 151.17204 816 ft 229 kts 346°
2026-05-05 16:30 -33.91448 151.16739 1535 ft 269 kts 344°
2026-05-05 16:30 -33.89842 151.15522 2426 ft 280 kts 312°
2026-05-05 16:30 -33.88597 151.13745 3654 ft 273 kts 310°
2026-05-05 16:30 -33.87377 151.12016 4702 ft 272 kts 311°
2026-05-05 16:31 -33.86108 151.10316 5883 ft 274 kts 313°
2026-05-05 16:31 -33.84812 151.08640 7079 ft 273 kts 313°
2026-05-05 16:31 -33.83503 151.06983 8261 ft 273 kts 313°
2026-05-05 16:31 -33.82175 151.05320 9250 ft 278 kts 314°
2026-05-05 16:32 -33.80826 151.03642 10263 ft 281 kts 314°
2026-05-05 16:32 -33.79418 151.01898 10836 ft 301 kts 314°
2026-05-05 16:32 -33.77796 151.00160 11174 ft 326 kts 327°
2026-05-05 16:32 -33.75628 150.99117 11548 ft 348 kts 349°
2026-05-05 16:33 -33.73156 150.99087 11997 ft 366 kts
2026-05-05 16:33 -33.70639 150.99711 12178 ft 371 kts 14°
2026-05-05 16:33 -33.68284 151.00971 12191 ft 373 kts 33°
2026-05-05 16:33 -33.66419 151.03119 12208 ft 375 kts 53°
2026-05-05 16:34 -33.65294 151.05950 12535 ft 380 kts 75°
2026-05-05 16:34 -33.65080 151.09115 13355 ft 384 kts 95°
2026-05-05 16:34 -33.65522 151.12278 14259 ft 387 kts 102°
2026-05-05 16:34 -33.66162 151.15435 15038 ft 392 kts 108°
2026-05-05 16:35 -33.67116 151.18515 15761 ft 397 kts 112°
2026-05-05 16:35 -33.68179 151.21604 16498 ft 403 kts 114°
2026-05-05 16:35 -33.69308 151.24701 17232 ft 408 kts 115°
2026-05-05 16:35 -33.70483 151.27834 17961 ft 414 kts 115°
2026-05-05 16:36 -33.71683 151.31002 18660 ft 419 kts 115°
2026-05-05 16:36 -33.72878 151.34162 19274 ft 424 kts 115°
2026-05-05 16:36 -33.74105 151.37419 19923 ft 429 kts 115°
2026-05-05 16:36 -33.75336 151.40705 20551 ft 434 kts 115°
2026-05-05 16:37 -33.76577 151.44033 21178 ft 439 kts 115°
2026-05-05 16:37 -33.77829 151.47400 21769 ft 444 kts 115°
2026-05-05 16:37 -33.79093 151.50804 22382 ft 448 kts 114°
2026-05-05 16:37 -33.80369 151.54247 22967 ft 453 kts 114°
2026-05-05 16:38 -33.81655 151.57719 23526 ft 457 kts 114°
2026-05-05 16:38 -33.82954 151.61230 24038 ft 462 kts 114°
2026-05-05 16:38 -33.84267 151.64781 24482 ft 467 kts 114°
2026-05-05 16:38 -33.85593 151.68371 24866 ft 472 kts 114°
2026-05-05 16:39 -33.86930 151.71996 25309 ft 476 kts 114°
2026-05-05 16:39 -33.88280 151.75658 25755 ft 480 kts 114°
2026-05-05 16:39 -33.89637 151.79344 26176 ft 484 kts 114°
2026-05-05 16:39 -33.91006 151.83070 26592 ft 488 kts 114°
2026-05-05 16:40 -33.92384 151.86822 27012 ft 492 kts 114°
2026-05-05 16:40 -33.93772 151.90603 27415 ft 496 kts 114°
2026-05-05 16:40 -33.94584 151.92821 27650 ft 498 kts 114°
2026-05-05 16:40 -33.96036 151.96784 28002 ft 503 kts 113°
2026-05-05 16:41 -33.97450 152.00653 28347 ft 507 kts 113°
2026-05-05 16:41 -33.98876 152.04555 28713 ft 510 kts 113°
2026-05-05 16:41 -34.00309 152.08484 29096 ft 514 kts 113°
2026-05-05 16:41 -34.01751 152.12440 29454 ft 517 kts 113°
2026-05-05 16:42 -34.03199 152.16419 29815 ft 521 kts 113°
2026-05-05 16:42 -34.04658 152.20434 30148 ft 524 kts 113°
2026-05-05 16:42 -34.06126 152.24475 30432 ft 527 kts 113°
2026-05-05 16:42 -34.07597 152.28532 30705 ft 530 kts 113°
2026-05-05 16:43 -34.09077 152.32619 30976 ft 533 kts 113°
2026-05-05 16:43 -34.10561 152.36722 31361 ft 533 kts 113°
2026-05-05 16:43 -34.12041 152.40818 31733 ft 533 kts 112°
2026-05-05 16:43 -34.13521 152.44919 32089 ft 534 kts 112°
2026-05-05 16:44 -34.14984 152.48979 32442 ft 534 kts 112°
2026-05-05 16:44 -34.16463 152.53089 32782 ft 535 kts 112°
2026-05-05 16:44 -34.17947 152.57220 33057 ft 537 kts 112°
2026-05-05 16:44 -34.19432 152.61358 33373 ft 538 kts 112°
2026-05-05 16:45 -34.20920 152.65507 33743 ft 538 kts 112°
2026-05-05 16:45 -34.22402 152.69648 34104 ft 538 kts 112°
2026-05-05 16:45 -34.23888 152.73801 34412 ft 538 kts 112°
2026-05-05 16:45 -34.25369 152.77950 34730 ft 537 kts 112°
2026-05-05 16:46 -34.26847 152.82092 35063 ft 536 kts 112°
2026-05-05 16:46 -34.28319 152.86227 35355 ft 536 kts 112°
2026-05-05 16:46 -34.29185 152.88659 35509 ft 536 kts 112°
2026-05-05 16:46 -34.30655 152.92795 35814 ft 536 kts 112°
2026-05-05 16:47 -34.32128 152.96946 36118 ft 536 kts 112°
2026-05-05 16:47 -34.33595 153.01084 36422 ft 535 kts 112°
2026-05-05 16:47 -34.35058 153.05217 36725 ft 535 kts 112°
2026-05-05 16:47 -34.36521 153.09353 37040 ft 534 kts 112°
2026-05-05 16:48 -34.37980 153.13485 37335 ft 533 kts 112°
2026-05-05 16:48 -34.39431 153.17599 37553 ft 534 kts 112°
2026-05-05 16:48 -34.40888 153.21737 37800 ft 535 kts 112°
2026-05-05 16:48 -34.42348 153.25889 38051 ft 535 kts 113°
2026-05-05 16:49 -34.43801 153.30025 38333 ft 534 kts 113°
2026-05-05 16:49 -34.45252 153.34159 38615 ft 534 kts 113°
2026-05-05 16:49 -34.46703 153.38301 38868 ft 533 kts 113°
2026-05-05 16:49 -34.48152 153.42442 39073 ft 533 kts 113°
2026-05-05 16:50 -34.51053 153.50748 39155 ft 537 kts 113°
2026-05-05 16:50 -34.53950 153.59068 39155 ft 534 kts 113°
2026-05-05 16:51 -34.56833 153.67366 39152 ft 534 kts 113°
2026-05-05 16:51 -34.59712 153.75676 39146 ft 534 kts 113°
2026-05-05 16:52 -34.62587 153.83997 39154 ft 535 kts 112°
2026-05-05 16:52 -34.65439 153.92273 39149 ft 535 kts 112°
2026-05-05 16:53 -34.68305 154.00611 39146 ft 535 kts 112°
2026-05-05 16:53 -34.71166 154.08956 39145 ft 535 kts 112°
2026-05-05 16:54 -34.74022 154.17309 39146 ft 535 kts 112°
2026-05-05 16:54 -34.76873 154.25672 39143 ft 535 kts 112°
2026-05-05 16:55 -34.79719 154.34040 39146 ft 535 kts 112°
2026-05-05 16:55 -34.82559 154.42414 39143 ft 535 kts 112°
2026-05-05 16:56 -34.85393 154.50795 39143 ft 535 kts 112°
2026-05-05 16:56 -34.88219 154.59174 39143 ft 535 kts 112°
2026-05-05 16:57 -34.90565 154.66147 39140 ft 535 kts 112°
2026-05-05 16:57 -34.93385 154.74549 39139 ft 535 kts 112°
2026-05-05 16:58 -34.96197 154.82951 39137 ft 535 kts 112°
2026-05-05 16:58 -34.99003 154.91359 39137 ft 535 kts 112°
2026-05-05 16:59 -35.01804 154.99772 39132 ft 535 kts 112°
2026-05-05 16:59 -35.04289 155.08295 39138 ft 531 kts 106°
2026-05-05 17:00 -35.06410 155.16910 39142 ft 529 kts 105°
2026-05-05 17:00 -35.08547 155.25505 39140 ft 529 kts 106°
2026-05-05 17:01 -35.10746 155.34087 39138 ft 529 kts 107°
2026-05-05 17:01 -35.12966 155.42661 39132 ft 529 kts 107°
2026-05-05 17:02 -35.15182 155.51236 39132 ft 529 kts 107°
2026-05-05 17:02 -35.17389 155.59818 39132 ft 529 kts 107°
2026-05-05 17:03 -35.19588 155.68404 39129 ft 529 kts 106°
2026-05-05 17:03 -35.21780 155.76993 39130 ft 529 kts 106°
2026-05-05 17:04 -35.23966 155.85585 39130 ft 529 kts 106°
2026-05-05 17:04 -35.26145 155.94180 39119 ft 529 kts 106°
2026-05-05 17:05 -35.28319 156.02782 39127 ft 529 kts 106°
2026-05-05 17:05 -35.30489 156.11398 39127 ft 529 kts 106°
2026-05-05 17:06 -35.32650 156.20005 39127 ft 529 kts 106°
2026-05-05 17:06 -35.34807 156.28627 39123 ft 529 kts 106°
2026-05-05 17:07 -35.36958 156.37254 39124 ft 529 kts 106°
2026-05-05 17:07 -35.39088 156.45827 39121 ft 529 kts 106°
2026-05-05 17:08 -35.41227 156.54462 39118 ft 529 kts 106°
2026-05-05 17:08 -35.43360 156.63105 39121 ft 530 kts 106°
2026-05-05 17:09 -35.45502 156.71814 39117 ft 530 kts 106°
2026-05-05 17:09 -35.47612 156.80419 39116 ft 530 kts 105°
2026-05-05 17:10 -35.49731 156.89092 39116 ft 530 kts 105°
2026-05-05 17:10 -35.51840 156.97758 39116 ft 530 kts 105°
2026-05-05 17:11 -35.53948 157.06445 39113 ft 531 kts 105°
2026-05-05 17:11 -35.56048 157.15134 39113 ft 531 kts 105°
2026-05-05 17:12 -35.58140 157.23817 39107 ft 531 kts 105°
2026-05-05 17:12 -35.60230 157.32523 39111 ft 531 kts 105°
2026-05-05 17:13 -35.62313 157.41230 39105 ft 531 kts 105°
2026-05-05 17:13 -35.64393 157.49952 39105 ft 531 kts 105°
2026-05-05 17:14 -35.66463 157.58670 39103 ft 531 kts 105°
2026-05-05 17:14 -35.68528 157.67392 39103 ft 531 kts 105°
2026-05-05 17:15 -35.70585 157.76117 39105 ft 531 kts 105°
2026-05-05 17:15 -35.72637 157.84847 39100 ft 531 kts 105°
2026-05-05 17:16 -35.74683 157.93582 39100 ft 531 kts 105°
2026-05-05 17:16 -35.76724 158.02332 39097 ft 532 kts 105°
2026-05-05 17:17 -35.78739 158.11099 39096 ft 532 kts 103°
2026-05-05 17:17 -35.80314 158.19993 39100 ft 531 kts 100°
2026-05-05 17:18 -35.81723 158.28935 39096 ft 532 kts 101°
2026-05-05 17:18 -35.83186 158.37886 39097 ft 533 kts 101°
2026-05-05 17:19 -35.84695 158.46831 39089 ft 533 kts 101°
2026-05-05 17:19 -35.86213 158.55775 39089 ft 533 kts 101°
2026-05-05 17:20 -35.87722 158.64722 39089 ft 533 kts 101°
2026-05-05 17:20 -35.89222 158.73670 39083 ft 533 kts 101°
2026-05-05 17:21 -35.90715 158.82622 39083 ft 533 kts 101°
2026-05-05 17:22 -35.92937 158.96039 39079 ft 531 kts 101°
2026-05-05 17:22 -35.94397 159.04903 39078 ft 530 kts 101°
2026-05-05 17:23 -35.95859 159.13822 39075 ft 530 kts 101°
2026-05-05 17:23 -35.97315 159.22745 39070 ft 530 kts 101°
2026-05-05 17:24 -35.98758 159.31636 39072 ft 527 kts 101°
2026-05-05 17:24 -36.00188 159.40493 39070 ft 526 kts 101°
2026-05-05 17:25 -36.01612 159.49350 39069 ft 526 kts 101°
2026-05-05 17:25 -36.03028 159.58208 39063 ft 525 kts 100°
2026-05-05 17:26 -36.04432 159.67023 39068 ft 522 kts 100°
2026-05-05 17:26 -36.05825 159.75824 39067 ft 521 kts 100°
2026-05-05 17:27 -36.07209 159.84609 39062 ft 521 kts 100°
2026-05-05 17:27 -36.08588 159.93401 39052 ft 520 kts 99°
2026-05-05 17:28 -36.09955 160.02165 39059 ft 518 kts 99°
2026-05-05 17:28 -36.11303 160.10849 39059 ft 518 kts 99°
2026-05-05 17:29 -36.12653 160.19596 39057 ft 518 kts 99°
2026-05-05 17:29 -36.13996 160.28336 39056 ft 517 kts 98°
2026-05-05 17:30 -36.15331 160.37066 39053 ft 516 kts 98°
2026-05-05 17:30 -36.16658 160.45790 39053 ft 516 kts 98°
2026-05-05 17:31 -36.17979 160.54523 39032 ft 516 kts 98°
2026-05-05 17:31 -36.19293 160.63247 39054 ft 515 kts 98°
2026-05-05 17:32 -36.20597 160.71951 39051 ft 514 kts 98°
2026-05-05 17:32 -36.21893 160.80655 39043 ft 514 kts 98°
2026-05-05 17:33 -36.23184 160.89362 39046 ft 514 kts 98°
2026-05-05 17:33 -36.24467 160.98062 39055 ft 513 kts 98°
2026-05-05 17:34 -36.25741 161.06748 39056 ft 512 kts 98°
2026-05-05 17:34 -36.27008 161.15434 39056 ft 512 kts 98°
2026-05-05 17:35 -36.28269 161.24123 39047 ft 512 kts 98°
2026-05-05 17:35 -36.29525 161.32824 39057 ft 513 kts 97°
2026-05-05 17:36 -36.30776 161.41540 39053 ft 514 kts 97°
2026-05-05 17:36 -36.32022 161.50260 39055 ft 513 kts 97°
2026-05-05 17:37 -36.33261 161.58980 39059 ft 514 kts 97°
2026-05-05 17:37 -36.34498 161.67741 39055 ft 517 kts 97°
2026-05-05 17:38 -36.35726 161.76483 39050 ft 518 kts 97°
2026-05-05 17:38 -36.36957 161.85292 39061 ft 518 kts 97°
2026-05-05 17:39 -36.38182 161.94103 39060 ft 518 kts 97°
2026-05-05 17:39 -36.39400 162.02916 39054 ft 518 kts 97°
2026-05-05 17:40 -36.40610 162.11722 39070 ft 518 kts 97°
2026-05-05 17:40 -36.41816 162.20548 39063 ft 518 kts 97°
2026-05-05 17:41 -36.43012 162.29356 39072 ft 518 kts 97°
2026-05-05 17:41 -36.44207 162.38208 39065 ft 521 kts 97°
2026-05-05 17:42 -36.45399 162.47086 39074 ft 521 kts 97°
2026-05-05 17:42 -36.46585 162.55967 39072 ft 521 kts 97°
2026-05-05 17:43 -36.47764 162.64851 39079 ft 522 kts 97°
2026-05-05 17:43 -36.48743 162.72268 39087 ft 524 kts 97°
2026-05-05 17:44 -36.49918 162.81216 39088 ft 525 kts 97°
2026-05-05 17:44 -36.51087 162.90169 39087 ft 525 kts 97°
2026-05-05 17:45 -36.52248 162.99122 39103 ft 525 kts 97°
2026-05-05 17:45 -36.53406 163.08106 39091 ft 527 kts 97°
2026-05-05 17:46 -36.54556 163.17109 39089 ft 527 kts 97°
2026-05-05 17:46 -36.55701 163.26116 39108 ft 527 kts 97°
2026-05-05 17:47 -36.56839 163.35129 39110 ft 529 kts 98°
2026-05-05 17:47 -36.57977 163.44203 39118 ft 532 kts 98°
2026-05-05 17:48 -36.59112 163.53301 39111 ft 533 kts 98°
2026-05-05 17:48 -36.60242 163.62410 39108 ft 532 kts 97°
2026-05-05 17:49 -36.61364 163.71528 39121 ft 533 kts 98°
2026-05-05 17:49 -36.62481 163.80657 39126 ft 534 kts 98°
2026-05-05 17:50 -36.63591 163.89785 39120 ft 534 kts 98°
2026-05-05 17:50 -36.64694 163.98923 39128 ft 534 kts 97°
2026-05-05 17:51 -36.65790 164.08060 39135 ft 533 kts 98°
2026-05-05 17:51 -36.66877 164.17182 39138 ft 532 kts 98°
2026-05-05 17:52 -36.67957 164.26308 39145 ft 532 kts 97°
2026-05-05 17:52 -36.69021 164.35364 39141 ft 532 kts 97°
2026-05-05 17:53 -36.70086 164.44485 39150 ft 532 kts 98°
2026-05-05 17:53 -36.71145 164.53613 39143 ft 532 kts 98°
2026-05-05 17:54 -36.72196 164.62744 39145 ft 532 kts 98°
2026-05-05 17:54 -36.73241 164.71878 39162 ft 532 kts 98°
2026-05-05 17:55 -36.74279 164.81014 39161 ft 533 kts 98°
2026-05-05 17:55 -36.75311 164.90169 39162 ft 533 kts 98°
2026-05-05 17:56 -36.76338 164.99336 39164 ft 533 kts 98°
2026-05-05 17:56 -36.77357 165.08499 39161 ft 533 kts 98°
2026-05-05 17:57 -36.78369 165.17671 39165 ft 534 kts 98°
2026-05-05 17:57 -36.79375 165.26856 39168 ft 534 kts 98°
2026-05-05 17:58 -36.80375 165.36046 39171 ft 535 kts 98°
2026-05-05 17:58 -36.81369 165.45242 39172 ft 535 kts 98°
2026-05-05 17:59 -36.82356 165.54448 39179 ft 535 kts 98°
2026-05-05 17:59 -36.83335 165.63656 39178 ft 535 kts 98°
2026-05-05 18:00 -36.84308 165.72865 39185 ft 535 kts 98°
2026-05-05 18:00 -36.85273 165.82079 39188 ft 535 kts 98°
2026-05-05 18:01 -36.86226 165.91240 39189 ft 536 kts 98°
2026-05-05 18:01 -36.87179 166.00467 39195 ft 536 kts 98°
2026-05-05 18:02 -36.88124 166.09694 39198 ft 536 kts 98°
2026-05-05 18:02 -36.89061 166.18923 39196 ft 535 kts 98°
2026-05-05 18:03 -36.89990 166.28132 39206 ft 534 kts 98°
2026-05-05 18:03 -36.90909 166.37326 39207 ft 533 kts 98°
2026-05-05 18:04 -36.91821 166.46511 39209 ft 533 kts 98°
2026-05-05 18:04 -36.92726 166.55706 39211 ft 532 kts 98°
2026-05-05 18:05 -36.93621 166.64873 39215 ft 530 kts 98°
2026-05-05 18:05 -36.94507 166.74023 39216 ft 530 kts 98°
2026-05-05 18:06 -36.95387 166.83174 39220 ft 530 kts 98°
2026-05-05 18:06 -36.96259 166.92327 39220 ft 530 kts 98°
2026-05-05 18:07 -36.97121 167.01458 39226 ft 528 kts 98°
2026-05-05 18:07 -36.97976 167.10579 39230 ft 528 kts 98°
2026-05-05 18:08 -36.98824 167.19704 39231 ft 528 kts 98°
2026-05-05 18:08 -36.99664 167.28827 39237 ft 527 kts 98°
2026-05-05 18:09 -37.00494 167.37913 39242 ft 525 kts 98°
2026-05-05 18:09 -37.01310 167.46923 39241 ft 525 kts 98°
2026-05-05 18:10 -37.02130 167.56052 39245 ft 525 kts 98°
2026-05-05 18:10 -37.02932 167.65066 39245 ft 524 kts 98°
2026-05-05 18:11 -37.03729 167.74100 39251 ft 521 kts 98°
2026-05-05 18:11 -37.04517 167.83113 39255 ft 521 kts 98°
2026-05-05 18:12 -37.05299 167.92129 39256 ft 521 kts 98°
2026-05-05 18:12 -37.06072 168.01133 39256 ft 518 kts 98°
2026-05-05 18:13 -37.06831 168.10059 39260 ft 514 kts 98°
2026-05-05 18:13 -37.07582 168.18948 39264 ft 513 kts 98°
2026-05-05 18:14 -37.08325 168.27834 39266 ft 513 kts 97°
2026-05-05 18:14 -37.09062 168.36721 39269 ft 512 kts 97°
2026-05-05 18:15 -37.09783 168.45516 39271 ft 506 kts 97°
2026-05-05 18:15 -37.10496 168.54282 39268 ft 505 kts 97°
2026-05-05 18:16 -37.11202 168.63039 39277 ft 505 kts 97°
2026-05-05 18:16 -37.11902 168.71801 39282 ft 505 kts 97°
2026-05-05 18:17 -37.12593 168.80533 39275 ft 502 kts 97°
2026-05-05 18:17 -37.13273 168.89225 39274 ft 501 kts 97°
2026-05-05 18:18 -37.13948 168.97914 39279 ft 501 kts 97°
2026-05-05 18:18 -37.14611 169.06547 39284 ft 501 kts 97°
2026-05-05 18:19 -37.15273 169.15238 39288 ft 501 kts 96°
2026-05-05 18:19 -37.15928 169.23932 39287 ft 501 kts 96°
2026-05-05 18:20 -37.16577 169.32630 39290 ft 501 kts 96°
2026-05-05 18:20 -37.17220 169.41329 39293 ft 501 kts 96°
2026-05-05 18:21 -37.17855 169.50014 39295 ft 500 kts 96°
2026-05-05 18:21 -37.18483 169.58689 39301 ft 499 kts 96°
2026-05-05 18:22 -37.19103 169.67353 39298 ft 499 kts 96°
2026-05-05 18:22 -37.19717 169.76019 39305 ft 499 kts 96°
2026-05-05 18:23 -37.20325 169.84688 39307 ft 499 kts 96°
2026-05-05 18:23 -37.20928 169.93367 39309 ft 500 kts 96°
2026-05-05 18:24 -37.21525 170.02052 39314 ft 500 kts 96°
2026-05-05 18:24 -37.22115 170.10738 39314 ft 500 kts 96°
2026-05-05 18:25 -37.22699 170.19425 39319 ft 500 kts 96°
2026-05-05 18:25 -37.23276 170.28104 39317 ft 500 kts 96°
2026-05-05 18:26 -37.23848 170.36802 39320 ft 500 kts 96°
2026-05-05 18:26 -37.24413 170.45491 39320 ft 500 kts 96°
2026-05-05 18:27 -37.24970 170.54172 39333 ft 500 kts 96°
2026-05-05 18:27 -37.25522 170.62860 39330 ft 499 kts 96°
2026-05-05 18:28 -37.25436 170.75940 39329 ft 500 kts 89°
2026-05-05 18:28 -37.25183 170.84601 39334 ft 500 kts 89°
2026-05-05 18:29 -37.24929 170.93315 39342 ft 500 kts 89°
2026-05-05 18:29 -37.24671 171.02026 39338 ft 499 kts 89°
2026-05-05 18:30 -37.24408 171.10723 39344 ft 499 kts 89°
2026-05-05 18:30 -37.24140 171.19412 39343 ft 499 kts 89°
2026-05-05 18:31 -37.23864 171.28116 39343 ft 499 kts 89°
2026-05-05 18:31 -37.23631 171.35337 39347 ft 498 kts 89°
2026-05-05 18:32 -37.23345 171.44016 39345 ft 497 kts 89°
2026-05-05 18:32 -37.23053 171.52683 39357 ft 497 kts 89°
2026-05-05 18:33 -37.22754 171.61361 39353 ft 497 kts 89°
2026-05-05 18:33 -37.22449 171.70027 39362 ft 497 kts 89°
2026-05-05 18:34 -37.22138 171.78677 39360 ft 496 kts 89°
2026-05-05 18:34 -37.21822 171.87311 39360 ft 495 kts 88°
2026-05-05 18:35 -37.21500 171.95944 39361 ft 495 kts 88°
2026-05-05 18:35 -37.21172 172.04571 39324 ft 494 kts 88°
2026-05-05 18:36 -37.21006 172.08862 38782 ft 492 kts 89°
2026-05-05 18:36 -37.20838 172.13157 37973 ft 494 kts 89°
2026-05-05 18:36 -37.20669 172.17460 37385 ft 493 kts 89°
2026-05-05 18:36 -37.20498 172.21732 36909 ft 489 kts 89°
2026-05-05 18:37 -37.20327 172.25986 36458 ft 486 kts 89°
2026-05-05 18:37 -37.20156 172.30209 35974 ft 484 kts 90°
2026-05-05 18:37 -37.19985 172.34405 35492 ft 481 kts 90°
2026-05-05 18:37 -37.19812 172.38598 34918 ft 481 kts 90°
2026-05-05 18:38 -37.19639 172.42790 34302 ft 482 kts 90°
2026-05-05 18:38 -37.19464 172.47008 33363 ft 487 kts 90°
2026-05-05 18:38 -37.19285 172.51269 32479 ft 491 kts 89°
2026-05-05 18:38 -37.19102 172.55565 31576 ft 494 kts 89°
2026-05-05 18:39 -37.18917 172.59880 30658 ft 497 kts 89°
2026-05-05 18:39 -37.18729 172.64206 29869 ft 495 kts 89°
2026-05-05 18:39 -37.18540 172.68492 29217 ft 489 kts 89°
2026-05-05 18:39 -37.18354 172.72712 28579 ft 483 kts 89°
2026-05-05 18:40 -37.18167 172.76895 27931 ft 477 kts 89°
2026-05-05 18:40 -37.17982 172.81027 27293 ft 472 kts 89°
2026-05-05 18:40 -37.17798 172.85117 26659 ft 468 kts 89°
2026-05-05 18:40 -37.17614 172.89165 26035 ft 464 kts 89°
2026-05-05 18:41 -37.17430 172.93184 25400 ft 460 kts 88°
2026-05-05 18:41 -37.17246 172.97175 24765 ft 456 kts 88°
2026-05-05 18:41 -37.17062 173.01133 24137 ft 453 kts 88°
2026-05-05 18:41 -37.16879 173.05059 23425 ft 450 kts 88°
2026-05-05 18:42 -37.16698 173.08906 22774 ft 445 kts 88°
2026-05-05 18:42 -37.16514 173.12801 22135 ft 440 kts 87°
2026-05-05 18:42 -37.16332 173.16605 21521 ft 435 kts 86°
2026-05-05 18:42 -37.16155 173.20317 20918 ft 430 kts 86°
2026-05-05 18:43 -37.15975 173.24044 20308 ft 426 kts 85°
2026-05-05 18:43 -37.15796 173.27723 19705 ft 422 kts 85°
2026-05-05 18:43 -37.15617 173.31379 19099 ft 418 kts 85°
2026-05-05 18:43 -37.15436 173.34995 18495 ft 414 kts 84°
2026-05-05 18:44 -37.15252 173.38569 17866 ft 409 kts 84°
2026-05-05 18:44 -37.15073 173.42102 17277 ft 403 kts 84°
2026-05-05 18:44 -37.14897 173.45582 16736 ft 397 kts 84°
2026-05-05 18:44 -37.14706 173.48998 16237 ft 390 kts 83°
2026-05-05 18:45 -37.14499 173.52377 15689 ft 387 kts 83°
2026-05-05 18:45 -37.14294 173.55726 15109 ft 383 kts 83°
2026-05-05 18:45 -37.14093 173.59037 14557 ft 380 kts 83°
2026-05-05 18:45 -37.13896 173.62306 14266 ft 369 kts 84°
2026-05-05 18:46 -37.13706 173.65456 14067 ft 357 kts 83°
2026-05-05 18:46 -37.13521 173.68516 13736 ft 348 kts 83°
2026-05-05 18:46 -37.13338 173.71522 13279 ft 345 kts 83°
2026-05-05 18:46 -37.13156 173.74510 12808 ft 342 kts 83°
2026-05-05 18:47 -37.12974 173.77472 12348 ft 339 kts 83°
2026-05-05 18:47 -37.12794 173.80403 11905 ft 336 kts 83°
2026-05-05 18:47 -37.12614 173.83317 11452 ft 334 kts 83°
2026-05-05 18:47 -37.12436 173.86203 11000 ft 331 kts 83°
2026-05-05 18:48 -37.12259 173.89059 10681 ft 325 kts 83°
2026-05-05 18:48 -37.12091 173.91833 10512 ft 314 kts 83°
2026-05-05 18:48 -37.11925 173.94483 10361 ft 304 kts 83°
2026-05-05 18:48 -37.11759 173.97089 10121 ft 298 kts 83°
2026-05-05 18:49 -37.11594 173.99662 9806 ft 294 kts 83°
2026-05-05 18:49 -37.11431 174.02202 9457 ft 292 kts 83°
2026-05-05 18:49 -37.11270 174.04725 9103 ft 290 kts 83°
2026-05-05 18:49 -37.11109 174.07229 8744 ft 288 kts 83°
2026-05-05 18:50 -37.10948 174.09727 8424 ft 285 kts 83°
2026-05-05 18:50 -37.10792 174.12165 8220 ft 278 kts 83°
2026-05-05 18:50 -37.10640 174.14563 7952 ft 275 kts 83°
2026-05-05 18:50 -37.10487 174.16935 7647 ft 273 kts 83°
2026-05-05 18:51 -37.10334 174.19296 7342 ft 271 kts 83°
2026-05-05 18:51 -37.10182 174.21634 7040 ft 269 kts 83°
2026-05-05 18:51 -37.10031 174.23959 6721 ft 267 kts 83°
2026-05-05 18:51 -37.09880 174.26277 6383 ft 266 kts 83°
2026-05-05 18:52 -37.09730 174.28578 6044 ft 265 kts 82°
2026-05-05 18:52 -37.09581 174.30867 5744 ft 262 kts 83°
2026-05-05 18:52 -37.09437 174.33125 5417 ft 260 kts 83°
2026-05-05 18:52 -37.09285 174.35378 5061 ft 259 kts 82°
2026-05-05 18:53 -37.09133 174.37616 4718 ft 257 kts 82°
2026-05-05 18:53 -37.08983 174.39839 4401 ft 255 kts 82°
2026-05-05 18:53 -37.08836 174.42027 4182 ft 248 kts 82°
2026-05-05 18:53 -37.08695 174.44143 4054 ft 239 kts 82°
2026-05-05 18:54 -37.08559 174.46172 3938 ft 230 kts 82°
2026-05-05 18:54 -37.08426 174.48135 3808 ft 223 kts 82°
2026-05-05 18:54 -37.08296 174.50050 3588 ft 220 kts 81°
2026-05-05 18:54 -37.08148 174.51949 3386 ft 217 kts 79°
2026-05-05 18:55 -37.07905 174.53793 3160 ft 213 kts 74°
2026-05-05 18:55 -37.07536 174.55563 3015 ft 205 kts 69°
2026-05-05 18:55 -37.07098 174.57220 3010 ft 198 kts 68°
2026-05-05 18:55 -37.06653 174.58848 2984 ft 198 kts 68°
2026-05-05 18:56 -37.06202 174.60483 2794 ft 199 kts 68°
2026-05-05 18:56 -37.05749 174.62124 2530 ft 198 kts 68°
2026-05-05 18:56 -37.05313 174.63711 2277 ft 186 kts 68°
2026-05-05 18:56 -37.04910 174.65175 2013 ft 170 kts 68°
2026-05-05 18:57 -37.04543 174.66509 1786 ft 155 kts 68°
2026-05-05 18:57 -37.04207 174.67729 1568 ft 142 kts 68°
2026-05-05 18:57 -37.03897 174.68853 1379 ft 131 kts 68°
2026-05-05 18:57 -37.03613 174.69887 1235 ft 122 kts 68°
2026-05-05 18:58 -37.03336 174.70891 1062 ft 122 kts 69°
2026-05-05 18:58 -37.03058 174.71901 894 ft 123 kts 70°
2026-05-05 18:58 -37.02780 174.72911 732 ft 122 kts 71°
2026-05-05 18:58 -37.02504 174.73913 580 ft 121 kts 72°
2026-05-05 18:59 -37.02231 174.74905 405 ft 120 kts 72°
2026-05-05 18:59 -37.01959 174.75892 254 ft 120 kts 72°
2026-05-05 18:59 -37.01676 174.76873 101 ft 119 kts 72°
2026-05-05 18:59 -37.01423 174.77830 29 ft 104 kts 73°
2026-05-05 19:00 -37.01225 174.78544 28 ft 72 kts 71°
2026-05-05 19:00 -37.01040 174.78987 31 ft 52 kts 44°
2026-05-05 19:00 -37.00953 174.79084 27 ft 0 kts 41°
2026-05-05 19:01 -37.00949 174.79088 31 ft 2 kts 40°
2026-05-05 19:02 -37.00930 174.79104 30 ft 5 kts 30°
2026-05-05 19:02 -37.00898 174.79107 29 ft 2 kts 324°
2026-05-05 19:02 -37.00897 174.79096 30 ft 2 kts 283°
2026-05-05 19:02 -37.00907 174.79014 29 ft 15 kts 251°
2026-05-05 19:03 -37.00942 174.78875 26 ft 17 kts 253°
2026-05-05 19:03 -37.00981 174.78733 30 ft 17 kts 251°
2026-05-05 19:03 -37.01024 174.78580 31 ft 20 kts 251°
2026-05-05 19:03 -37.01068 174.78401 31 ft 22 kts 260°
2026-05-05 19:04 -37.01007 174.78265 31 ft 17 kts 324°
2026-05-05 19:04 -37.00926 174.78147 30 ft 20 kts 297°
2026-05-05 19:04 -37.00831 174.78028 29 ft 20 kts 337°
2026-05-05 19:04 -37.00696 174.78034 29 ft 21 kts 21°
2026-05-05 19:05 -37.00582 174.78013 28 ft 13 kts 303°
2026-05-05 19:05 -37.00598 174.77915 29 ft 13 kts 246°
2026-05-05 19:05 -37.00634 174.77798 29 ft 16 kts 249°
2026-05-05 19:05 -37.00678 174.77746 28 ft 7 kts 175°
2026-05-05 19:06 -37.00738 174.77773 30 ft 0 kts 159°